User: anonymous   Login
Location: Lawrence
(38.9720°N, 95.2350°W)
Time: 01:08:19
(UTC-05:00)
Language:

ALOS - Orbit

View from above orbital plane
View from above orbital plane
View from above satellite
View from above satellite

Ground track
Ground track

The orbit data is extracted from the following two-line orbital elements,

1 28931U 06002A   16121.17684234  .00000214  00000-0  51268-4 0  9990
2 28931  97.8886 162.1323 0001780 121.0321 239.1056 14.62173409547105
Epoch (UTC): 30 April 2016 04:14:39
Eccentricity: 0.0001780
inclination: 97.8886°
perigee height: 685 km
apogee height: 687 km
right ascension of ascending node: 162.1323°
argument of perigee: 121.0321°
revolutions per day: 14.62173409
mean anomaly at epoch: 239.1056°
orbit number at epoch: 54710

The dashed part of the orbit path shows where the satellite is in the earth's shadow,  

DLR